Weather History for KSHD - October, 2012

Change the Weather History Date:

Friday, October 5, 2012

  Actual Average Record
Temperature  
Mean Temperature 64 °F -  
Max Temperature 78 °F 70 °F 87 °F (2002)
Min Temperature 49 °F 47 °F 32 °F (1996)
Degree Days  
Heating Degree Days 2    
Growing Degree Days 14 (Base 50)    
Moisture  
Dew Point 53 °F    
Average Humidity 72    
Maximum Humidity 94    
Minimum Humidity 39    
Precipitation  
Precipitation 0.00 in - - ()
Sea Level Pressure  
Sea Level Pressure 30.14 in    
Wind  
Wind Speed 1 mph (South)    
Max Wind Speed 8 mph    
Max Gust Speed -    
Visibility 9 miles    
Events      
Averages and records for this station are not official NWS values.
T = Trace of Precipitation, MM = Missing Value Source: NWS Daily Summary

Daily Weather History Graph

Daily Weather History Graph

Search for Another Location

Airport or City:

Trip Planner

Search our weather history database for the weather conditions in past years. The results will help you decide how hot, cold, wet, or windy it might be!

Date:

Astronomy

Oct. 05, 2012 Rise Set
Actual Time 7:15 AM EDT 6:51 PM EDT
Civil Twilight 6:49 AM EDT 7:18 PM EDT
Nautical Twilight 6:18 AM EDT 7:48 PM EDT
Astronomical Twilight 5:47 AM EDT 8:19 PM EDT
Moon 10:17 PM EDT (10/5) 12:17 PM EDT (10/5)
Length of Visible Light 12h 29m
Length of Day
11h 36m
Waning Gibbous, 74% of the Moon is Illuminated
Oct 5
Waning Gibbous
Oct 8
Last Quarter
Oct 15
New
Oct 21
First Quarter
Oct 29
Full

Hourly Weather History & Observations

Time (EDT) Temp. Dew Point Humidity Pressure Visibility Wind Dir Wind Speed Gust Speed Precip Events Conditions
12:15 AM 53.2 °F 50.4 °F 90% 30.23 in 10.0 mi Calm Calm - N/A   Clear
12:35 AM 54.9 °F 52.0 °F 90% 30.23 in 10.0 mi WSW 3.5 mph - N/A   Clear
12:55 AM 55.0 °F 52.5 °F 91% 30.23 in 10.0 mi Calm Calm - N/A   Clear
1:15 AM 54.7 °F 52.0 °F 91% 30.23 in 10.0 mi Calm Calm - N/A   Clear
1:35 AM 53.6 °F 51.1 °F 91% 30.23 in 10.0 mi Calm Calm - N/A   Clear
1:55 AM 53.1 °F 50.7 °F 92% 30.23 in 10.0 mi Calm Calm - N/A   Clear
2:15 AM 53.1 °F 50.2 °F 90% 30.23 in 10.0 mi Calm Calm - N/A   Clear
2:35 AM 52.3 °F 49.8 °F 91% 30.23 in 10.0 mi Calm Calm - N/A   Clear
2:55 AM 52.2 °F 49.8 °F 92% 30.23 in 10.0 mi Calm Calm - N/A   Clear
3:15 AM 52.5 °F 50.0 °F 91% 30.22 in 10.0 mi Calm Calm - N/A   Clear
3:35 AM 52.3 °F 50.4 °F 93% 30.21 in 7.0 mi SW 3.5 mph - N/A   Clear
3:55 AM 51.8 °F 50.0 °F 94% 30.21 in 7.0 mi Calm Calm - N/A   Clear
4:15 AM 52.2 °F 50.0 °F 92% 30.21 in 10.0 mi Calm Calm - N/A   Clear
4:35 AM 52.0 °F 50.0 °F 93% 30.21 in 7.0 mi Calm Calm - N/A   Clear
4:55 AM 50.5 °F 48.2 °F 92% 30.21 in 7.0 mi Calm Calm - N/A   Clear
5:15 AM 50.9 °F 48.9 °F 93% 30.22 in 7.0 mi Calm Calm - N/A   Clear
5:35 AM 50.7 °F 48.9 °F 94% 30.21 in 7.0 mi Calm Calm - N/A   Clear
5:55 AM 50.2 °F 48.4 °F 94% 30.22 in 7.0 mi Calm Calm - N/A   Clear
6:15 AM 50.9 °F 48.6 °F 92% 30.22 in 10.0 mi Calm Calm - N/A   Clear
6:35 AM 50.0 °F 47.8 °F 92% 30.22 in 7.0 mi Calm Calm - N/A   Clear
6:55 AM 49.3 °F 47.3 °F 93% 30.22 in 7.0 mi Calm Calm - N/A   Clear
7:15 AM 49.5 °F 47.1 °F 92% 30.22 in 7.0 mi Calm Calm - N/A   Clear
7:35 AM 50.2 °F 48.6 °F 94% 30.21 in 5.0 mi Calm Calm - N/A   Clear
7:55 AM 49.6 °F 47.7 °F 93% 30.22 in 7.0 mi Calm Calm - N/A   Clear
8:15 AM 52.5 °F 50.7 °F 94% 30.22 in 7.0 mi Calm Calm - N/A   Clear
8:35 AM 54.7 °F 51.8 °F 90% 30.22 in 10.0 mi Calm Calm - N/A   Clear
8:55 AM 56.1 °F 52.7 °F 88% 30.22 in 10.0 mi Calm Calm - N/A   Clear
9:15 AM 57.9 °F 53.2 °F 84% 30.22 in 10.0 mi Calm Calm - N/A   Clear
9:35 AM 61.0 °F 54.5 °F 79% 30.22 in 10.0 mi South 3.5 mph - N/A   Clear
9:55 AM 63.3 °F 55.4 °F 75% 30.22 in 10.0 mi Calm Calm - N/A   Clear
10:15 AM 65.5 °F 55.9 °F 71% 30.22 in 10.0 mi Calm Calm - N/A   Clear
10:35 AM 68.0 °F 56.3 °F 66% 30.21 in 10.0 mi SE 3.5 mph - N/A   Clear
10:55 AM 70.0 °F 55.8 °F 61% 30.21 in 10.0 mi South 4.6 mph - N/A   Clear
11:15 AM 72.0 °F 55.2 °F 55% 30.20 in 10.0 mi SSW 3.5 mph - N/A   Clear
11:35 AM 72.7 °F 54.3 °F 52% 30.19 in 10.0 mi SW 3.5 mph - N/A   Clear
11:55 AM 73.8 °F 52.9 °F 48% 30.18 in 10.0 mi SW 4.6 mph - N/A   Clear
12:15 PM 73.9 °F 53.4 °F 49% 30.17 in 10.0 mi Calm Calm - N/A   Clear
12:35 PM 75.7 °F 52.9 °F 45% 30.15 in 10.0 mi Calm Calm - N/A   Clear
12:55 PM 76.1 °F 54.3 °F 47% 30.15 in 10.0 mi SE 3.5 mph - N/A   Clear
1:15 PM 76.1 °F 53.6 °F 45% 30.13 in 10.0 mi East 3.5 mph - N/A   Scattered Clouds
1:35 PM 76.6 °F 53.2 °F 44% 30.12 in 10.0 mi SE 5.8 mph - N/A   Scattered Clouds
1:55 PM 76.3 °F 52.5 °F 43% 30.11 in 10.0 mi Calm Calm - N/A   Clear
2:35 PM 77.7 °F 54.1 °F 44% 30.09 in 10.0 mi SSW 5.8 mph - N/A   Scattered Clouds
2:55 PM 78.3 °F 54.1 °F 43% 30.09 in 10.0 mi South 4.6 mph - N/A   Clear
3:15 PM 77.2 °F 52.9 °F 43% 30.08 in 10.0 mi SSE 3.5 mph - N/A   Clear
3:35 PM 78.1 °F 51.4 °F 39% 30.08 in 10.0 mi Calm Calm - N/A   Clear
3:55 PM 78.4 °F 52.3 °F 40% 30.07 in 10.0 mi SW 4.6 mph - N/A   Clear
4:15 PM 78.6 °F 52.9 °F 41% 30.07 in 10.0 mi South 6.9 mph - N/A   Clear
4:35 PM 78.3 °F 52.9 °F 41% 30.06 in 10.0 mi SW 8.1 mph - N/A   Clear
4:55 PM 78.1 °F 52.7 °F 41% 30.06 in 10.0 mi SSW 4.6 mph - N/A   Clear
5:15 PM 77.5 °F 53.2 °F 43% 30.05 in 10.0 mi SSW 4.6 mph - N/A   Clear
5:35 PM 77.0 °F 53.2 °F 44% 30.05 in 10.0 mi SSW 8.1 mph - N/A   Clear
5:55 PM 76.1 °F 54.1 °F 46% 30.05 in 10.0 mi South 6.9 mph - N/A   Clear
6:15 PM 74.8 °F 54.9 °F 50% 30.04 in 10.0 mi South 5.8 mph - N/A   Clear
6:35 PM 73.6 °F 54.9 °F 52% 30.04 in 10.0 mi South 4.6 mph - N/A   Clear
6:55 PM 72.7 °F 54.7 °F 53% 30.04 in 10.0 mi South 4.6 mph - N/A   Clear
7:15 PM 70.3 °F 55.6 °F 59% 30.04 in 10.0 mi Calm Calm - N/A   Clear
7:35 PM 68.4 °F 55.6 °F 64% 30.05 in 10.0 mi Calm Calm - N/A   Clear
7:55 PM 67.1 °F 55.4 °F 66% 30.05 in 10.0 mi Calm Calm - N/A   Clear
8:15 PM 66.0 °F 55.4 °F 69% 30.05 in 10.0 mi Calm Calm - N/A   Clear
8:35 PM 64.4 °F 55.4 °F 73% 30.05 in 10.0 mi Calm Calm - N/A   Clear
8:55 PM 64.0 °F 55.4 °F 73% 30.05 in 10.0 mi Calm Calm - N/A   Clear
9:15 PM 63.5 °F 55.6 °F 75% 30.04 in 10.0 mi Calm Calm - N/A   Clear
9:35 PM 61.5 °F 55.2 °F 80% 30.04 in 10.0 mi Calm Calm - N/A   Scattered Clouds
9:55 PM 58.8 °F 54.7 °F 86% 30.04 in 10.0 mi Calm Calm - N/A   Clear
10:15 PM 60.4 °F 55.2 °F 83% 30.03 in 10.0 mi Calm Calm - N/A   Clear
10:35 PM 58.5 °F 54.0 °F 85% 30.03 in 10.0 mi Calm Calm - N/A   Clear
10:55 PM 58.6 °F 54.9 °F 87% 30.03 in 10.0 mi Calm Calm - N/A   Clear
11:15 PM 57.2 °F 53.4 °F 87% 30.02 in 10.0 mi Calm Calm - N/A   Clear
11:35 PM 57.4 °F 54.0 °F 88% 30.02 in 10.0 mi Calm Calm - N/A   Clear
11:55 PM 56.5 °F 53.4 °F 89% 30.02 in 10.0 mi Calm Calm - N/A   Clear